timestamp,surface_pressure_avg,surface_temp_avg,battery_voltage,lat,long
2021-02-02 00:09:01+00:00,287.4747,2.1,12.65,47.84626,-54.09684
2021-02-02 00:19:01+00:00,296.0397,2.0,12.65,47.84626,-54.09684
2021-02-02 00:29:01+00:00,305.2714,1.99,12.65,47.84626,-54.09684
2021-02-02 00:39:01+00:00,311.1047,1.99,12.65,47.84626,-54.09684
2021-02-02 00:49:01+00:00,316.4363,1.98,12.65,47.84626,-54.09684
2021-02-02 00:59:01+00:00,322.9297,1.95,12.65,47.84626,-54.09684
2021-02-02 01:09:01+00:00,328.0613,1.9,12.65,47.84626,-54.09684
2021-02-02 01:19:01+00:00,332.4513,1.9,12.65,47.84626,-54.09684
2021-02-02 01:29:01+00:00,341.1964,1.9,12.65,47.84626,-54.09684
2021-02-02 01:39:01+00:00,348.5146,1.9,12.65,47.84626,-54.09684
2021-02-02 01:49:01+00:00,354.0547,1.9,12.65,47.84626,-54.09684
2021-02-02 01:59:01+00:00,354.5479,1.9,12.65,47.84626,-54.09684
2021-02-02 02:09:01+00:00,354.0463,1.9,12.65,47.84626,-54.09684
2021-02-02 02:19:01+00:00,359.5613,1.9,12.57,47.84626,-54.09684
2021-02-02 02:29:01+00:00,361.1929,1.9,12.57,47.84626,-54.09684
2021-02-02 02:39:01+00:00,359.7095,1.9,12.57,47.84626,-54.09684
2021-02-02 02:49:01+00:00,359.2829,1.9,12.57,47.84626,-54.09684
2021-02-02 02:59:01+00:00,361.2479,1.9,12.57,47.84626,-54.09684
2021-02-02 03:09:01+00:00,360.3513,1.9,12.57,47.84626,-54.09684
2021-02-02 03:19:01+00:00,356.1161,1.9,12.57,47.84626,-54.09684
2021-02-02 03:29:01+00:00,354.1096,1.9,12.57,47.84626,-54.09684
2021-02-02 03:39:01+00:00,351.1729,1.9,12.57,47.84626,-54.09684
2021-02-02 03:49:01+00:00,348.4896,1.9,12.57,47.84626,-54.09684
2021-02-02 03:59:01+00:00,347.8463,1.9,12.57,47.84626,-54.09684
2021-02-02 04:09:01+00:00,345.1162,1.93,12.57,47.84626,-54.09684
2021-02-02 04:19:01+00:00,342.7997,1.97,12.57,47.84626,-54.09684
2021-02-02 04:29:01+00:00,337.5797,2.0,12.57,47.84626,-54.09684
2021-02-02 04:39:01+00:00,329.963,2.0,12.57,47.84626,-54.09684
2021-02-02 04:49:01+00:00,323.9929,2.0,12.57,47.84626,-54.09684
2021-02-02 04:59:01+00:00,320.2997,2.0,12.57,47.84626,-54.09684
2021-02-02 05:09:01+00:00,312.7147,2.0,12.57,47.84626,-54.09684
2021-02-02 05:19:01+00:00,302.7531,2.0,12.57,47.84626,-54.09684
2021-02-02 05:29:01+00:00,297.358,2.0,12.57,47.84626,-54.09684
2021-02-02 05:39:01+00:00,290.4514,2.0,12.57,47.84626,-54.09684
2021-02-02 05:49:01+00:00,280.2297,2.0,12.57,47.84626,-54.09684
2021-02-02 05:59:01+00:00,272.5547,2.0,12.57,47.84626,-54.09684
2021-02-02 06:09:01+00:00,266.0831,2.0,12.57,47.84626,-54.09684
2021-02-02 06:19:01+00:00,257.5081,2.0,12.49,47.84626,-54.09684
2021-02-02 06:29:01+00:00,247.4514,2.0,12.49,47.84626,-54.09684
2021-02-02 06:39:01+00:00,238.6331,2.0,12.49,47.84626,-54.09684
2021-02-02 06:49:01+00:00,229.8831,1.99,12.49,47.84626,-54.09684
2021-02-02 06:59:01+00:00,220.2298,1.93,12.49,47.84626,-54.09684
2021-02-02 07:09:01+00:00,211.8398,1.9,12.49,47.84626,-54.09684
2021-02-02 07:19:01+00:00,209.6698,1.9,12.49,47.84626,-54.09684
2021-02-02 07:29:01+00:00,205.9281,1.95,12.49,47.84626,-54.09684
2021-02-02 07:39:01+00:00,195.1998,1.96,12.49,47.84626,-54.09684
2021-02-02 07:49:01+00:00,188.5465,1.93,12.49,47.84626,-54.09684
2021-02-02 07:59:01+00:00,188.7798,1.96,12.49,47.84626,-54.09684
2021-02-02 08:09:01+00:00,187.7931,1.99,12.49,47.84626,-54.09684
2021-02-02 08:19:01+00:00,186.5914,2.0,12.41,47.84626,-54.09684
2021-02-02 08:29:01+00:00,188.4998,2.0,12.41,47.84626,-54.09684
2021-02-02 08:39:01+00:00,188.1148,2.0,12.41,47.84626,-54.09684
2021-02-02 08:49:01+00:00,181.8381,1.99,12.41,47.84626,-54.09684
2021-02-02 08:59:01+00:00,184.2615,1.9,12.41,47.84626,-54.09684
2021-02-02 09:09:01+00:00,188.9781,1.9,12.41,47.84626,-54.09684
2021-02-02 09:19:01+00:00,185.4064,1.9,12.41,47.84626,-54.09684
2021-02-02 09:29:01+00:00,187.4898,1.8,12.41,47.84626,-54.09684
2021-02-02 09:39:01+00:00,193.7715,1.8,12.41,47.84626,-54.09684
2021-02-02 09:49:01+00:00,197.2064,1.8,12.41,47.84626,-54.09684
2021-02-02 09:59:01+00:00,200.8598,1.8,12.41,47.84626,-54.09684
2021-02-02 10:09:01+00:00,206.6081,1.8,12.41,47.84626,-54.09684
2021-02-02 10:19:01+00:00,213.4115,1.8,12.41,47.84626,-54.09684
2021-02-02 10:29:01+00:00,216.8831,1.8,12.41,47.84626,-54.09684
2021-02-02 10:39:01+00:00,218.0764,1.77,12.41,47.84626,-54.09684
2021-02-02 10:49:01+00:00,221.9364,1.7,12.41,47.84626,-54.09684
2021-02-02 10:59:01+00:00,225.3965,1.67,12.41,47.84626,-54.09684
2021-02-02 11:09:01+00:00,226.3531,1.67,12.41,47.84626,-54.09684
2021-02-02 11:19:01+00:00,227.2314,1.7,12.41,47.84626,-54.09684
2021-02-02 11:29:01+00:00,236.0964,1.78,12.41,47.84626,-54.09684
2021-02-02 11:39:01+00:00,248.2614,1.8,12.41,47.84626,-54.09684
2021-02-02 11:49:01+00:00,252.0997,1.8,12.41,47.84626,-54.09684
2021-02-02 11:59:01+00:00,254.4847,1.8,12.41,47.84626,-54.09684
2021-02-02 12:09:01+00:00,260.9931,1.8,12.41,47.84626,-54.09684
2021-02-02 12:19:01+00:00,269.4297,1.81,12.49,47.84626,-54.09684
2021-02-02 12:29:01+00:00,273.6497,1.85,12.49,47.84626,-54.09684
2021-02-02 12:39:01+00:00,277.3364,1.8,12.49,47.84626,-54.09684
2021-02-02 12:49:01+00:00,282.5747,1.82,12.49,47.84626,-54.09684
2021-02-02 12:59:01+00:00,288.9714,1.8,12.49,47.84626,-54.09684
2021-02-02 13:09:01+00:00,298.328,1.8,12.49,47.84626,-54.09684
2021-02-02 13:19:01+00:00,306.0613,1.8,13.21,47.84626,-54.09684
2021-02-02 13:29:01+00:00,315.818,1.8,13.21,47.84626,-54.09684
2021-02-02 13:39:01+00:00,321.3096,1.8,13.21,47.84626,-54.09684
2021-02-02 13:49:01+00:00,331.098,1.8,13.21,47.84626,-54.09684
2021-02-02 13:59:01+00:00,340.1379,1.8,13.21,47.84626,-54.09684
2021-02-02 14:09:01+00:00,341.0814,1.8,13.21,47.84626,-54.09684
2021-02-02 14:19:01+00:00,342.1661,1.8,14.48,47.84626,-54.09684
2021-02-02 14:29:01+00:00,349.5596,1.8,14.48,47.84626,-54.09684
2021-02-02 14:39:01+00:00,349.858,1.8,14.48,47.84626,-54.09684
2021-02-02 14:49:01+00:00,340.4713,1.8,14.48,47.84626,-54.09684
2021-02-02 14:59:01+00:00,342.3047,1.8,14.48,47.84626,-54.09684
2021-02-02 15:09:01+00:00,348.8731,1.8,14.48,47.84626,-54.09684
2021-02-02 15:19:01+00:00,339.5413,1.8,14.8,47.84626,-54.09684
2021-02-02 15:29:01+00:00,337.6230000000001,1.82,14.8,47.84626,-54.09684
2021-02-02 15:39:01+00:00,346.1612,1.83,14.8,47.84626,-54.09684
2021-02-02 15:49:01+00:00,347.2996,1.82,14.8,47.84626,-54.09684
2021-02-02 15:59:01+00:00,335.6863,1.84,14.8,47.84626,-54.09684
2021-02-02 16:09:01+00:00,337.7480000000001,1.86,14.8,47.84626,-54.09684
2021-02-02 16:19:01+00:00,342.51800000000014,1.88,14.72,47.84626,-54.09684
2021-02-02 16:29:01+00:00,340.1129,1.87,14.72,47.84626,-54.09684
2021-02-02 16:39:01+00:00,335.218,1.88,14.72,47.84626,-54.09684
2021-02-02 16:49:01+00:00,336.6362,1.9,14.72,47.84626,-54.09684
2021-02-02 16:59:01+00:00,331.2064,1.9,14.72,47.84626,-54.09684
2021-02-02 17:09:01+00:00,322.3912,1.9,14.72,47.84626,-54.09684
2021-02-02 17:19:01+00:00,319.7714,1.9,14.4,47.84626,-54.09684
2021-02-02 17:29:01+00:00,314.733,1.9,14.4,47.84626,-54.09684
2021-02-02 17:39:01+00:00,295.4114,1.9,14.4,47.84626,-54.09684
2021-02-02 17:49:01+00:00,287.6213,1.92,14.4,47.84626,-54.09684
2021-02-02 17:59:01+00:00,288.2397,1.94,14.4,47.84626,-54.09684
2021-02-02 18:09:01+00:00,280.5431,1.96,14.4,47.84626,-54.09684
2021-02-02 18:19:01+00:00,267.3114,1.99,14.24,47.84626,-54.09684
2021-02-02 18:29:01+00:00,267.0214,1.99,14.24,47.84626,-54.09684
2021-02-02 18:39:01+00:00,259.2981,2.0,14.24,47.84626,-54.09684
2021-02-02 18:49:01+00:00,236.4797,1.99,14.24,47.84626,-54.09684
2021-02-02 18:59:01+00:00,220.0364,2.0,14.24,47.84626,-54.09684
2021-02-02 19:09:01+00:00,216.1497,2.0,14.24,47.84626,-54.09684
2021-02-02 19:19:01+00:00,205.3131,2.0,13.92,47.84626,-54.09684
2021-02-02 19:29:01+00:00,190.1965,2.0,13.92,47.84626,-54.09684
2021-02-02 19:39:01+00:00,185.168,2.0,13.92,47.84626,-54.09684
2021-02-02 19:49:01+00:00,181.9698,2.0,13.92,47.84626,-54.09684
2021-02-02 19:59:01+00:00,175.7814,2.0,13.92,47.84626,-54.09684
2021-02-02 20:09:01+00:00,175.2964,2.0,13.92,47.84626,-54.09684
2021-02-02 20:19:01+00:00,171.9799,2.0,13.53,47.84626,-54.09684
2021-02-02 20:29:01+00:00,165.3882,2.0,13.53,47.84626,-54.09684
2021-02-02 20:39:01+00:00,168.0481,2.0,13.53,47.84626,-54.09684
2021-02-02 20:49:01+00:00,167.1749,2.0,13.53,47.84626,-54.09684
2021-02-02 20:59:01+00:00,160.5432,2.0,13.53,47.84626,-54.09684
2021-02-02 21:09:01+00:00,162.2648,2.0,13.53,47.84626,-54.09684
2021-02-02 21:19:01+00:00,169.5865,2.0,13.05,47.84626,-54.09684
2021-02-02 21:29:01+00:00,170.0082,2.0,13.05,47.84626,-54.09684
2021-02-02 21:39:01+00:00,172.4448,2.0,13.05,47.84626,-54.09684
2021-02-02 21:49:01+00:00,180.5798,2.0,13.05,47.84626,-54.09684
2021-02-02 21:59:01+00:00,185.0498,2.0,13.05,47.84626,-54.09684
2021-02-02 22:09:01+00:00,185.8182,2.01,13.05,47.84626,-54.09684
2021-02-02 22:19:01+00:00,191.4532,2.0,12.73,47.84626,-54.09684
2021-02-02 22:29:01+00:00,201.8414,2.0,12.73,47.84626,-54.09684
2021-02-02 22:39:01+00:00,204.9782,2.0,12.73,47.84626,-54.09684
2021-02-02 22:49:01+00:00,202.7514,2.0,12.73,47.84626,-54.09684
2021-02-02 22:59:01+00:00,209.8948,2.0,12.73,47.84626,-54.09684
2021-02-02 23:09:01+00:00,220.6881,2.0,12.73,47.84626,-54.09684
2021-02-02 23:19:01+00:00,222.1681,2.03,12.65,47.84626,-54.09684
2021-02-02 23:29:01+00:00,228.8015,2.0,12.65,47.84626,-54.09684
2021-02-02 23:39:01+00:00,239.3248,2.0,12.65,47.84626,-54.09684
2021-02-02 23:49:01+00:00,239.9281,2.02,12.65,47.84626,-54.09684
2021-02-02 23:59:01+00:00,239.4047,2.03,12.65,47.84626,-54.09684
